Flag for Netherlands Weather past 2 weeks in 's-Hertogenbosch, Netherlands

Now
55 °F

Overcast.


Feels Like: 51 °F
Forecast: 50 / 53 °F
Wind: 20 mph from West

Location: Volkel

Current Time: Dec 22, 2014 at 8:30:05 PM

Latest Report: Dec 22, 2014 at 7:55 PM


Visibility: N/A

Pressure: 30.04 "Hg

Humidity: 77%

Dew point: 48 °F

Location of 's-HertogenboschLocation

Historic Weather in 's-Hertogenbosch — Graph

°F

's-Hertogenbosch temperature yesterday

Maximum temperature yesterday: 48 °F (at 10:25 PM)
Minimum temperature yesterday: 37 °F (at 4:55 AM)
Average temperature yesterday: 43 °F

Past Weeks' High & Low Weather Summary

 TemperatureHumidityPressure
High55 °F (Dec 18, 3:55 PM)100% (Dec 7, 7:00 PM)30.36 "Hg (Dec 7, 7:00 PM)
Low28 °F (Dec 14, 5:55 AM)62% (Dec 10, 2:25 PM)29.33 "Hg (Dec 12, 12:55 PM)
Average43 °F90%29.92 "Hg
* Reported Dec 7 7:00 PM — Dec 22 7:25 PM, 's-Hertogenbosch, Weather by CustomWeather, © 2014

Note: Actual official high and low records may vary slightly from our data, if they occured in-between our weather recording intervals... More about our weather records

Advertising

's-Hertogenbosch weather history for previous 24 hours

 ConditionsComfort  
Time TempWeatherWind HumidityBarometerVisibility
7:25 PM
Dec 22
55 °FOvercast.23 mph77%30.01 "HgN/A
6:55 PM55 °FOvercast.22 mph77%30.01 "HgN/A
6:25 PM55 °FMostly cloudy.22 mph77%30.01 "HgN/A
5:55 PM55 °FMostly cloudy.21 mph77%30.01 "HgN/A
5:25 PM55 °FOvercast.18 mph77%30.01 "HgN/A
4:55 PM55 °FOvercast.18 mph77%30.01 "HgN/A
4:25 PM55 °FMostly cloudy.21 mph77%30.01 "HgN/A
3:55 PM54 °FMostly cloudy.22 mph82%30.01 "HgN/A
3:25 PM54 °FMostly cloudy.21 mph82%30.01 "HgN/A
2:55 PM54 °FMostly cloudy.21 mph88%30.01 "HgN/A
2:25 PM52 °FMore clouds than sun.20 mph94%30.01 "HgN/A
1:55 PM50 °FFog.23 mph94%30.01 "Hg5 mi
1:25 PM50 °FFog.22 mph94%30.01 "Hg2 mi
12:55 PM50 °FFog.24 mph94%30.04 "Hg2 mi
12:25 PM50 °FFog.25 mph94%30.04 "Hg6 mi
11:55 AM50 °FMostly cloudy.23 mph94%30.04 "HgN/A
11:25 AM50 °FCloudy.25 mph88%30.04 "HgN/A
10:55 AM48 °FFog.25 mph94%30.04 "Hg2 mi
10:25 AM48 °FFog.25 mph94%30.07 "Hg2 mi
10:02 AM48 °FFog.25 mph94%30.04 "Hg2 mi
9:55 AM48 °FMostly cloudy.26 mph94%30.07 "HgN/A
9:25 AM48 °FLow clouds.25 mph94%30.07 "HgN/A
8:55 AM48 °FFog.25 mph94%30.04 "Hg5 mi
8:25 AM48 °FFog.28 mph94%30.04 "Hg4 mi
7:55 AM48 °FFog.25 mph94%30.04 "Hg3 mi
7:25 AM48 °FFog.24 mph94%30.07 "Hg3 mi
6:55 AM48 °FFog.24 mph94%30.07 "Hg4 mi
6:25 AM48 °FFog.23 mph94%30.07 "Hg5 mi
6:03 AM48 °FFog.25 mph94%30.07 "Hg2 mi
5:55 AM48 °FFog.24 mph94%30.07 "Hg2 mi
5:25 AM50 °FFog.24 mph88%30.07 "Hg6 mi
4:55 AM50 °FOvercast.25 mph88%30.07 "HgN/A
4:25 AM48 °FOvercast.24 mph87%30.07 "HgN/A
3:55 AM48 °FOvercast.22 mph87%30.09 "HgN/A
3:25 AM48 °FMostly cloudy.22 mph87%30.09 "HgN/A
2:55 AM48 °FOvercast.25 mph87%30.09 "HgN/A
2:25 AM48 °FOvercast.22 mph87%30.12 "HgN/A
1:55 AM48 °FOvercast.25 mph87%30.12 "HgN/A
1:25 AM48 °FOvercast.24 mph87%30.12 "HgN/A
12:55 AM48 °FMostly cloudy.24 mph87%30.12 "HgN/A
12:25 AM46 °FOvercast.23 mph93%30.15 "HgN/A
11:55 PM
Dec 21
48 °FOvercast.24 mph87%30.15 "HgN/A
11:25 PM48 °FOvercast.23 mph87%30.15 "HgN/A
10:25 PM48 °FMostly cloudy.23 mph87%30.15 "HgN/A
9:55 PM46 °FLow clouds.22 mph93%30.18 "HgN/A
9:25 PM46 °FMostly cloudy.21 mph93%30.18 "HgN/A
9:00 PM46 °FMostly cloudy.21 mph93%30.18 "HgN/A
8:55 PM46 °FMostly cloudy.18 mph93%30.18 "HgN/A
8:25 PM46 °FMostly cloudy.20 mph93%30.18 "HgN/A
Weather by CustomWeather, © 2014

See weather overviewHow to use our weather pages